Trabzon, Turkey

3:29 AM EEST on September 25, 2016 (GMT +0300)
Trabzon

Weather History for LTCG - November, 2012

Change the Weather History Date:

Wednesday, November 7, 2012

  Actual Average Record
Temperature  
Mean Temperature 65 °F -  
Max Temperature 71 °F 60 °F 81 °F (2013)
Min Temperature 59 °F 50 °F 44 °F (1997)
Growing Degree Days 15 (Base 50)    
Moisture  
Dew Point 60 °F    
Average Humidity 76    
Maximum Humidity 94    
Minimum Humidity 50    
Precipitation  
Precipitation 0.39 in - - ()
Sea Level Pressure  
Sea Level Pressure 29.93 in    
Wind  
Wind Speed 6 mph ()    
Max Wind Speed 26 mph    
Max Gust Speed 31 mph    
Visibility 6.4 miles    
Events Rain    
Averages and records for this station are not official NWS values.
T = Trace of Precipitation, MM = Missing Value Source: Averaged Metar Reports

Daily Weather History Graph

Daily Weather History Graph

Search for Another Location

Airport or City:

Trip Planner

Search our weather history database for the weather conditions in past years. The results will help you decide how hot, cold, wet, or windy it might be!

Date:

Astronomy

Nov. 07, 2012 Rise Set
Actual Time 5:58 AM EET 4:09 PM EET
Civil Twilight 5:30 AM EET 4:38 PM EET
Nautical Twilight 4:57 AM EET 5:11 PM EET
Astronomical Twilight 4:25 AM EET 5:43 PM EET
Moon 11:30 PM EET (11/7) 12:10 PM EET (11/7)
Length of Visible Light 11h 08m
Length of Day
10h 10m
Last Quarter, 46% of the Moon is Illuminated
Nov 7
Last Quarter
Nov 14
New
Nov 20
First Quarter
Nov 28
Full
Dec 6
Last Quarter

Hourly Weather History & Observations

Time (EET) Temp. Dew Point Humidity Pressure Visibility Wind Dir Wind Speed Gust Speed Precip Events Conditions
12:20 AM 71.6 °F 51.8 °F 50% 29.98 in 6.2 mi West 6.9 mph - N/A   Mostly Cloudy
12:50 AM 69.8 °F 51.8 °F 53% 29.98 in 6.2 mi WSW 4.6 mph - N/A   Mostly Cloudy
1:20 AM 69.8 °F 53.6 °F 56% 29.98 in 6.2 mi WSW 4.6 mph - N/A   Mostly Cloudy
1:50 AM 68.0 °F 55.4 °F 64% 29.98 in 6.2 mi WSW 3.5 mph - N/A   Mostly Cloudy
2:00 AM 68 °F 55 °F 54% 30.00 in 12 mi WSW 3.5 mph - -   Scattered Clouds
2:20 AM 68.0 °F 57.2 °F 68% 29.98 in 6.2 mi West 5.8 mph - N/A   Mostly Cloudy
2:50 AM 68.0 °F 59.0 °F 73% 29.98 in 6.2 mi West 5.8 mph - N/A   Mostly Cloudy
3:20 AM 68.0 °F 60.8 °F 78% 29.98 in 6.2 mi WSW 5.8 mph - N/A   Mostly Cloudy
3:50 AM 68.0 °F 59.0 °F 73% 29.98 in 6.2 mi WSW 6.9 mph - N/A   Mostly Cloudy
4:20 AM 68.0 °F 59.0 °F 73% 29.98 in 6.2 mi SW 6.9 mph - N/A   Mostly Cloudy
4:50 AM 68.0 °F 60.8 °F 78% 29.98 in 6.2 mi SW 5.8 mph - N/A   Mostly Cloudy
5:20 AM 68.0 °F 60.8 °F 78% 29.98 in 6.2 mi SW 6.9 mph - N/A   Mostly Cloudy
5:50 AM 66.2 °F 59.0 °F 78% 29.95 in 6.2 mi SW 5.8 mph - N/A   Mostly Cloudy
6:20 AM 66.2 °F 60.8 °F 83% 29.95 in 6.2 mi Calm Calm - N/A   Mostly Cloudy
6:50 AM 66.2 °F 59.0 °F 78% 29.95 in 6.2 mi Calm Calm - N/A   Mostly Cloudy
7:20 AM 68.0 °F 60.8 °F 78% 29.95 in 6.2 mi Calm Calm - N/A   Mostly Cloudy
7:50 AM 69.8 °F 59.0 °F 68% 29.95 in 6.2 mi Calm Calm - N/A   Mostly Cloudy
8:00 AM 69 °F 59 °F 64% 29.96 in 12 mi Calm Calm - -   Partly Cloudy
8:20 AM 71.6 °F 59.0 °F 64% 29.95 in 6.2 mi Calm Calm - N/A   Mostly Cloudy
8:50 AM 69.8 °F 60.8 °F 73% 29.95 in 6.2 mi Variable 2.3 mph - N/A   Mostly Cloudy
9:20 AM 69.8 °F 59.0 °F 68% 29.95 in 6.2 mi Variable 2.3 mph - N/A   Mostly Cloudy
9:50 AM 69.8 °F 60.8 °F 73% 29.92 in 6.2 mi NW 3.5 mph - N/A   Scattered Clouds
10:20 AM 69.8 °F 59.0 °F 68% 29.92 in 6.2 mi NW 4.6 mph - N/A   Scattered Clouds
10:50 AM 71.6 °F 59.0 °F 64% 29.89 in 6.2 mi NNW 4.6 mph - N/A   Scattered Clouds
11:20 AM 69.8 °F 59.0 °F 68% 29.89 in 6.2 mi NNW 4.6 mph - N/A   Scattered Clouds
11:50 AM 69.8 °F 59.0 °F 68% 29.89 in 6.2 mi Variable 2.3 mph - N/A   Scattered Clouds
12:20 PM 69.8 °F 60.8 °F 73% 29.89 in 6.2 mi ENE 4.6 mph - N/A   Scattered Clouds
12:50 PM 69.8 °F 62.6 °F 78% 29.86 in 6.2 mi East 8.1 mph - N/A   Mostly Cloudy
1:20 PM 68.0 °F 64.4 °F 88% 29.86 in 6.2 mi East 9.2 mph - N/A   Mostly Cloudy
1:50 PM 68.0 °F 62.6 °F 83% 29.86 in 6.2 mi East 8.1 mph - N/A   Mostly Cloudy
2:00 PM 69 °F 63 °F 77% 29.86 in 12 mi East 8.1 mph - -   Partly Cloudy
2:20 PM 68.0 °F 62.6 °F 83% 29.86 in 6.2 mi East 8.1 mph - N/A   Mostly Cloudy
2:50 PM 68.0 °F 62.6 °F 83% 29.86 in 6.2 mi NE 4.6 mph - N/A   Mostly Cloudy
3:20 PM 69.8 °F 60.8 °F 73% 29.86 in 6.2 mi Calm Calm - N/A   Mostly Cloudy
3:50 PM 68.0 °F 62.6 °F 83% 29.86 in 6.2 mi West 5.8 mph - N/A   Mostly Cloudy
4:20 PM 68.0 °F 64.4 °F 88% 29.86 in 6.2 mi West 12.7 mph - N/A   Mostly Cloudy
4:50 PM 68.0 °F 64.4 °F 88% 29.89 in 6.2 mi West 11.5 mph - N/A   Mostly Cloudy
5:20 PM 68.0 °F 64.4 °F 88% 29.89 in 6.2 mi WNW 9.2 mph - N/A   Mostly Cloudy
5:50 PM 68.0 °F 62.6 °F 83% 29.89 in 6.2 mi West 6.9 mph - N/A   Mostly Cloudy
6:20 PM 68.0 °F 62.6 °F 83% 29.89 in 6.2 mi Variable 1.2 mph - N/A   Mostly Cloudy
6:50 PM 68.0 °F 62.6 °F 83% 29.89 in 6.2 mi Variable 2.3 mph - N/A   Mostly Cloudy
7:20 PM 68.0 °F 62.6 °F 83% 29.89 in 6.2 mi WNW 11.5 mph - N/A   Mostly Cloudy
7:50 PM 68.0 °F 60.8 °F 78% 29.92 in 6.2 mi WNW 9.2 mph - N/A   Mostly Cloudy
8:00 PM 68 °F 61 °F 71% 29.92 in 9 mi WNW 9.2 mph - -   Partly Cloudy
8:20 PM 68.0 °F 60.8 °F 78% 29.92 in 6.2 mi West 8.1 mph - N/A   Mostly Cloudy
8:50 PM 68.0 °F 60.8 °F 78% 29.92 in 6.2 mi WNW 8.1 mph - N/A   Mostly Cloudy
9:20 PM 69.8 °F 60.8 °F 73% 29.95 in 6.2 mi NW 13.8 mph - N/A   Mostly Cloudy
9:50 PM 66.2 °F 62.6 °F 88% 29.95 in 6.2 mi North 13.8 mph - N/A   Mostly Cloudy
10:20 PM 66.2 °F 60.8 °F 83% 29.95 in 2.5 mi North 17.3 mph 31.1 mph N/A Rain Heavy Rain Showers
10:50 PM 59.0 °F 57.2 °F 94% 30.04 in 2.5 mi WNW 26.5 mph - N/A Rain Rain Showers
11:20 PM 59.0 °F 57.2 °F 94% 30.06 in 2.8 mi WNW 24.2 mph - N/A Rain Rain Showers
11:50 PM 59.0 °F 57.2 °F 94% 30.06 in 6.2 mi WNW 19.6 mph - N/A Rain Light Rain Showers